Weather History for Grand Forks, ND

Change the Weather History Date:

Saturday, March 16, 2013

  Actual Average Record
Temperature  
Mean Temperature -4 °F 25 °F  
Max Temperature 10 °F 34 °F 73 °F (2012)
Min Temperature -18 °F 16 °F -18 °F (2013)
Degree Days  
Heating Degree Days 69 40  
Month to date heating degree days 804 703  
Since 1 July heating degree days 7805 7853  
Cooling Degree Days 0 0  
Month to date cooling degree days 0 0  
Year to date cooling degree days 0 0  
Moisture  
Dew Point -8 °F    
Average Humidity 78    
Maximum Humidity 89    
Minimum Humidity 66    
Precipitation  
Precipitation 0.00 in 0.03 in 0.20 in (1996)
Month to date precipitation 0.64 0.48  
Year to date precipitation 1.43 1.55  
Snow  
Snow 0.00 in 0.30 in - ()
Month to date snowfall 13.3 4.6  
Since 1 July snowfall 43.2 41.8  
Snow Depth 10.00 in    
Sea Level Pressure  
Sea Level Pressure 30.28 in    
Wind  
Wind Speed 9 mph (NW)    
Max Wind Speed 18 mph    
Max Gust Speed 21 mph    
Visibility 10 miles    
Events      
T = Trace of Precipitation, MM = Missing Value Source: NWS Daily Summary

Daily Weather History Graph

Daily Weather History Graph

Search for Another Location

Airport:

Trip Planner

Search our weather history database for the weather conditions in past years. The results will help you decide how hot, cold, wet, or windy it might be!

Date:

Astronomy

Mar. 16, 2013 Rise Set
Actual Time 7:39 AM CDT 7:36 PM CDT
Civil Twilight 7:08 AM CDT 8:06 PM CDT
Nautical Twilight 6:32 AM CDT 8:43 PM CDT
Astronomical Twilight 5:55 AM CDT 9:20 PM CDT
Moon 9:47 AM CDT (3/16) 12:11 AM CDT (3/16)
Length of Visible Light 12h 58m
Length of Day
11h 56m
Waxing Crescent, 23% of the Moon is Illuminated
Mar 16
Waxing Crescent
Mar 19
First Quarter
Mar 27
Full
Apr 2
Last Quarter
Apr 10
New

Hourly Weather History & Observations

Time (CDT) Temp. Windchill Dew Point Humidity Pressure Visibility Wind Dir Wind Speed Gust Speed Precip Events Conditions
12:49 AM -0.4 °F -18.4 °F -5.8 °F 78% 30.15 in 10.0 mi NNW 12.7 mph - N/A   Overcast
12:53 AM -0.9 °F -19.1 °F -5.1 °F 83% 30.22 in 9.0 mi NNW 12.7 mph - N/A   Overcast
1:50 AM -0.4 °F -17.6 °F -5.8 °F 78% 30.15 in 10.0 mi NNW 11.5 mph - N/A   Overcast
1:53 AM -0.9 °F -18.3 °F -6.0 °F 79% 30.22 in 10.0 mi NNW 11.5 mph - N/A   Overcast
2:53 AM -0.9 °F -19.9 °F -5.1 °F 83% 30.23 in 9.0 mi North 13.8 mph - N/A   Overcast
3:53 AM -2.0 °F -21.9 °F -6.0 °F 83% 30.26 in 9.0 mi NNW 15.0 mph - N/A   Overcast
4:33 AM -5.8 °F -21.2 °F -9.4 °F 84% 30.19 in 5.0 mi NNW 8.1 mph - N/A   Overcast
4:53 AM -7.1 °F -22.8 °F -11.0 °F 83% 30.27 in 7.0 mi NW 8.1 mph - N/A   Scattered Clouds
5:00 AM -7.6 °F -23.4 °F -11.2 °F 84% 30.19 in 9.0 mi WNW 8.1 mph - N/A   Partly Cloudy
5:53 AM -8.0 °F -22.5 °F -11.0 °F 86% 30.28 in 10.0 mi WNW 6.9 mph - N/A   Mostly Cloudy
6:53 AM -13.0 °F -28.6 °F -17.0 °F 82% 30.29 in 10.0 mi West 6.9 mph - N/A   Clear
7:53 AM -14.1 °F -31.3 °F -18.9 °F 79% 30.30 in 10.0 mi West 8.1 mph - N/A   Clear
8:53 AM -11.0 °F -26.2 °F -15.0 °F 83% 30.29 in 10.0 mi West 6.9 mph - N/A   Clear
9:53 AM -6.0 °F -20.1 °F -11.9 °F 75% 30.29 in 10.0 mi WNW 6.9 mph - N/A   Clear
10:53 AM -0.0 °F -11.6 °F -7.1 °F 72% 30.27 in 10.0 mi WNW 5.8 mph - N/A   Scattered Clouds
11:53 AM 3.9 °F -11.3 °F -2.9 °F 73% 30.28 in 10.0 mi WNW 10.4 mph - N/A   Scattered Clouds
12:53 PM 7.0 °F -8.3 °F -0.9 °F 70% 30.29 in 10.0 mi WNW 11.5 mph - N/A   Mostly Cloudy
1:53 PM 10.4 °F -4.8 °F 1.4 °F 67% 30.22 in 10.0 mi NW 12.7 mph - N/A   Mostly Cloudy
2:53 PM 9.0 °F -6.6 °F -0.0 °F 67% 30.29 in 10.0 mi NW 12.7 mph - N/A   Mostly Cloudy
3:53 PM 10.0 °F -5.2 °F 1.0 °F 67% 30.29 in 10.0 mi NNW 12.7 mph - N/A   Scattered Clouds
4:53 PM 10.0 °F -5.2 °F 1.0 °F 67% 30.30 in 10.0 mi North 12.7 mph - N/A   Scattered Clouds
5:53 PM 8.1 °F -9.0 °F -0.9 °F 67% 30.30 in 10.0 mi North 15.0 mph - N/A   Partly Cloudy
6:53 PM 3.9 °F -10.4 °F -2.9 °F 73% 30.32 in 10.0 mi North 9.2 mph - N/A   Clear
7:53 PM -2.0 °F -18.7 °F -9.9 °F 69% 30.34 in 10.0 mi North 10.4 mph - N/A   Clear
8:53 PM -8.0 °F -21.0 °F -14.1 °F 75% 30.37 in 10.0 mi NNW 5.8 mph - N/A   Clear
9:53 PM -11.9 °F -29.9 °F -17.0 °F 78% 30.38 in 10.0 mi NNW 9.2 mph - N/A   Clear
10:53 PM -16.1 °F -28.6 °F -18.0 °F 91% 30.38 in 10.0 mi NW 4.6 mph - N/A   Clear
11:53 PM -17.0 °F -27.2 °F -20.0 °F 86% 30.38 in 10.0 mi WNW 3.5 mph - N/A   Clear